Tracking 25648 objects as of 17-May-2022
HD Live streaming from Space Station
objects crossing your sky now

SL-14 DEB

Track SL-14 DEB now!
10-day predictions


NORAD ID: 47080
Int'l Code: 1991-056DE
Perigee: 868.6 km
Apogee: 1,205.4 km
Inclination: 82.5 °
Period: 105.8 minutes
Semi major axis: 7407 km
RCS: Unknown
Launch date: August 15, 1991
Source: Commonwealth of Independent States (former USSR) (CIS)
Launch site: PLESETSK MISSILE AND SPACE COMPLEX (PKMTR)

Note: This is SATELLITE DEBRIS
aabbcc
Your satellite tracking list
Your tracking list is empty




NASA's NSSDC Master Catalog

Two Line Element Set (TLE):
1 47080U 91056DE  22136.53498569  .00010452  00000-0  11471-1 0  9990
2 47080  82.5218  67.1069 0227324  13.7554 346.9648 13.61616470 75828
Source of the keplerian elements: AFSPC